| time (UTC) | temp C | wind direction | speed KPH | gust KPH | rain 1hr cm | rain 24hr cm | rain mn cm | humidity % | barometer mb |
| 20260506163616 | 25 | 169 | 0.0 | 8.0 | 0.00 | 0.00 | 0.00 | 42 | 1042.5 |
| 20260506162756 | 25 | 172 | 1.6 | 0.0 | 0.00 | 0.00 | 0.00 | 41 | 1042.5 |
| 20260506161936 | 26 | 148 | 0.0 | 3.2 | 0.00 | 0.00 | 0.00 | 41 | 1042.5 |
| 20260506161116 | 26 | 163 | 4.8 | 9.7 | 0.00 | 0.00 | 0.00 | 40 | 1042.5 |
| 20260506160256 | 26 | 146 | 8.0 | 12.9 | 0.00 | 0.00 | 0.00 | 40 | 1042.5 |
| 20260506155436 | 27 | 163 | 4.8 | 16.1 | 0.00 | 0.00 | 0.00 | 40 | 1042.5 |
| 20260506154616 | 27 | 158 | 0.0 | 0.0 | 0.00 | 0.00 | 0.00 | 39 | 1042.5 |
| 20260506153756 | 27 | 222 | 1.6 | 8.0 | 0.00 | 0.00 | 0.00 | 39 | 1042.5 |
| 20260506152936 | 27 | 300 | 0.0 | 0.0 | 0.00 | 0.00 | 0.00 | 39 | 1042.5 |
| 20260506152116 | 27 | 341 | 1.6 | 12.9 | 0.00 | 0.00 | 0.00 | 39 | 1042.5 |
| 20260506151256 | 27 | 292 | 4.8 | 8.0 | 0.00 | 0.00 | 0.00 | 38 | 1042.5 |
| 20260506150436 | 28 | 300 | 0.0 | 0.0 | 0.00 | 0.00 | 0.00 | 38 | 1042.5 |
| 20260506145616 | 28 | 247 | 0.0 | 1.6 | 0.00 | 0.00 | 0.00 | 38 | 1042.5 |
| 20260506144756 | 28 | 306 | 0.0 | 0.0 | 0.00 | 0.00 | 0.00 | 38 | 1042.5 |
| 20260506143936 | 28 | 292 | 1.6 | 3.2 | 0.00 | 0.00 | 0.00 | 38 | 1042.5 |
| 20260506143116 | 28 | 281 | 0.0 | 8.0 | 0.00 | 0.00 | 0.00 | 38 | 1042.5 |
| 20260506142256 | 28 | 292 | 0.0 | 0.0 | 0.00 | 0.00 | 0.00 | 37 | 1042.5 |
| 20260506141436 | 28 | 258 | 0.0 | 0.0 | 0.00 | 0.00 | 0.00 | 38 | 1042.5 |
| 20260506140616 | 28 | 249 | 0.0 | 0.0 | 0.00 | 0.00 | 0.00 | 38 | 1042.5 |
| 20260506135756 | 28 | 295 | 0.0 | 0.0 | 0.00 | 0.00 | 0.00 | 38 | 1042.5 |
| 20260506134936 | 28 | 278 | 0.0 | 4.8 | 0.00 | 0.00 | 0.00 | 37 | 1042.5 |
| 20260506134116 | 28 | 224 | 0.0 | 1.6 | 0.00 | 0.00 | 0.00 | 36 | 1042.5 |
| 20260506133256 | 28 | 292 | 0.0 | 0.0 | 0.00 | 0.00 | 0.00 | 37 | 1042.5 |
| 20260506132436 | 28 | 265 | 0.0 | 0.0 | 0.00 | 0.00 | 0.00 | 36 | 1042.5 |
| 20260506131616 | 28 | 0 | 0.0 | 0.0 | 0.00 | 0.00 | 0.00 | 36 | 1042.5 |
| 20260506130756 | 28 | 300 | 0.0 | 0.0 | 0.00 | 0.00 | 0.00 | 38 | 1042.5 |
| 20260506125936 | 28 | 305 | 0.0 | 0.0 | 0.00 | 0.00 | 0.00 | 38 | 1042.5 |
| 20260506125116 | 28 | 303 | 0.0 | 0.0 | 0.00 | 0.00 | 0.00 | 38 | 1042.5 |
| 20260506124256 | 28 | 322 | 0.0 | 0.0 | 0.00 | 0.00 | 0.00 | 38 | 1042.5 |
| 20260506123436 | 28 | 265 | 0.0 | 0.0 | 0.00 | 0.00 | 0.00 | 38 | 1042.5 |
| 20260506122616 | 28 | 196 | 0.0 | 0.0 | 0.00 | 0.00 | 0.00 | 36 | 1042.5 |
| 20260506121756 | 28 | 154 | 0.0 | 0.0 | 0.00 | 0.00 | 0.00 | 37 | 1042.5 |
| 20260506120936 | 28 | 149 | 0.0 | 0.0 | 0.00 | 0.00 | 0.00 | 36 | 1042.5 |
| 20260506120116 | 27 | 315 | 0.0 | 0.0 | 0.00 | 0.00 | 0.00 | 39 | 1042.5 |
| 20260506115256 | 27 | 292 | 0.0 | 0.0 | 0.00 | 0.00 | 0.00 | 37 | 1042.5 |
| 20260506114436 | 27 | 277 | 0.0 | 0.0 | 0.00 | 0.00 | 0.00 | 38 | 1042.5 |
| 20260506113616 | 27 | 292 | 0.0 | 0.0 | 0.00 | 0.00 | 0.00 | 36 | 1042.5 |
| 20260506112756 | 27 | 125 | 0.0 | 0.0 | 0.00 | 0.00 | 0.00 | 38 | 1042.5 |
| 20260506111936 | 26 | 181 | 0.0 | 0.0 | 0.00 | 0.00 | 0.00 | 38 | 1042.5 |
| 20260506111116 | 26 | 158 | 0.0 | 0.0 | 0.00 | 0.00 | 0.00 | 37 | 1042.5 |
| 20260506110256 | 27 | 128 | 0.0 | 0.0 | 0.00 | 0.00 | 0.00 | 38 | 1042.5 |
| 20260506105436 | 26 | 175 | 0.0 | 0.0 | 0.00 | 0.00 | 0.00 | 39 | 1042.5 |
| 20260506104616 | 26 | 135 | 0.0 | 0.0 | 0.00 | 0.00 | 0.00 | 39 | 1042.5 |
| 20260506103756 | 26 | 140 | 0.0 | 0.0 | 0.00 | 0.00 | 0.00 | 40 | 1042.5 |
| 20260506102936 | 26 | 162 | 0.0 | 3.2 | 0.00 | 0.00 | 0.00 | 40 | 1042.5 |
| 20260506102116 | 25 | 263 | 0.0 | 0.0 | 0.00 | 0.00 | 0.00 | 41 | 1042.5 |
| 20260506101256 | 25 | 138 | 0.0 | 0.0 | 0.00 | 0.00 | 0.00 | 40 | 1042.5 |
| 20260506100436 | 25 | 148 | 0.0 | 0.0 | 0.00 | 0.00 | 0.00 | 42 | 1042.5 |
| 20260506095616 | 25 | 225 | 0.0 | 0.0 | 0.00 | 0.00 | 0.00 | 42 | 1042.5 |
| 20260506094756 | 25 | 200 | 0.0 | 0.0 | 0.00 | 0.00 | 0.00 | 42 | 1042.5 |
| 20260506093936 | 24 | 297 | 0.0 | 0.0 | 0.00 | 0.00 | 0.00 | 43 | 1042.5 |
| 20260506093116 | 24 | 294 | 0.0 | 0.0 | 0.00 | 0.00 | 0.00 | 43 | 1042.5 |
| 20260506092256 | 24 | 189 | 0.0 | 0.0 | 0.00 | 0.00 | 0.00 | 44 | 1042.5 |
| 20260506091436 | 23 | 225 | 0.0 | 0.0 | 0.00 | 0.00 | 0.00 | 45 | 1042.5 |
| 20260506090616 | 23 | 0 | 0.0 | 0.0 | 0.00 | 0.00 | 0.00 | 45 | 1042.5 |
| 20260506085756 | 23 | 71 | 0.0 | 4.8 | 0.00 | 0.00 | 0.00 | 46 | 1042.5 |
| 20260506084936 | 22 | 309 | 0.0 | 0.0 | 0.00 | 0.00 | 0.00 | 47 | 1042.5 |
| 20260506084116 | 22 | 209 | 0.0 | 0.0 | 0.00 | 0.00 | 0.00 | 49 | 1042.5 |
| 20260506082756 | 22 | 242 | 0.0 | 0.0 | 0.00 | 0.00 | 0.00 | 49 | 1042.5 |
| 20260506081936 | 22 | 135 | 0.0 | 0.0 | 0.00 | 0.00 | 0.00 | 48 | 1042.5 |
| 20260506081116 | 21 | 292 | 0.0 | 0.0 | 0.00 | 0.00 | 0.00 | 47 | 1042.5 |
| 20260506080256 | 21 | 287 | 0.0 | 0.0 | 0.00 | 0.00 | 0.00 | 49 | 1042.5 |
| 20260506072936 | 20 | 180 | 0.0 | 0.0 | 0.00 | 0.00 | 0.00 | 53 | 1042.5 |
| 20260506072116 | 20 | 135 | 0.0 | 0.0 | 0.00 | 0.00 | 0.00 | 52 | 1042.5 |
| 20260506071256 | 19 | 135 | 0.0 | 0.0 | 0.00 | 0.00 | 0.00 | 53 | 1042.5 |
| 20260506070436 | 19 | 177 | 0.0 | 0.0 | 0.00 | 0.00 | 0.00 | 54 | 1042.5 |
| 20260506062256 | 17 | 45 | 0.0 | 0.0 | 0.00 | 0.00 | 0.00 | 59 | 1042.5 |
| 20260506061436 | 17 | 45 | 0.0 | 0.0 | 0.00 | 0.00 | 0.00 | 62 | 1042.5 |
| 20260506060616 | 16 | 45 | 0.0 | 0.0 | 0.00 | 0.00 | 0.00 | 64 | 1042.5 |
| 20260506050756 | 14 | 109 | 0.0 | 0.0 | 0.00 | 0.00 | 0.00 | 72 | 1042.5 |
| 20260506045116 | 13 | 112 | 0.0 | 0.0 | 0.00 | 0.00 | 0.00 | 77 | 1042.5 |
| 20260506044256 | 12 | 153 | 0.0 | 0.0 | 0.00 | 0.00 | 0.00 | 79 | 1042.5 |
| 20260506043436 | 12 | 270 | 0.0 | 0.0 | 0.00 | 0.00 | 0.00 | 80 | 1042.5 |
| 20260506042616 | 11 | 270 | 0.0 | 0.0 | 0.00 | 0.00 | 0.00 | 83 | 1042.5 |
| 20260506041756 | 10 | 270 | 0.0 | 0.0 | 0.00 | 0.00 | 0.00 | 84 | 1042.5 |
| 20260506040936 | 10 | 270 | 0.0 | 0.0 | 0.00 | 0.00 | 0.00 | 85 | 1042.5 |
| 20260506040116 | 9 | 270 | 0.0 | 0.0 | 0.00 | 0.00 | 0.00 | 84 | 1042.5 |
| 20260506035256 | 9 | 270 | 0.0 | 0.0 | 0.00 | 0.00 | 0.00 | 84 | 1042.5 |
| 20260506034436 | 9 | 270 | 0.0 | 0.0 | 0.00 | 0.00 | 0.00 | 84 | 1042.5 |
| 20260506033615 | 8 | 270 | 0.0 | 0.0 | 0.00 | 0.00 | 0.00 | 84 | 1042.5 |
| 20260506032755 | 8 | 270 | 0.0 | 0.0 | 0.00 | 0.00 | 0.00 | 84 | 1042.5 |
| 20260506031935 | 8 | 270 | 0.0 | 0.0 | 0.00 | 0.00 | 0.00 | 84 | 1042.5 |
| 20260506031115 | 8 | 292 | 0.0 | 0.0 | 0.00 | 0.00 | 0.00 | 84 | 1042.5 |
| 20260506030255 | 9 | 292 | 0.0 | 0.0 | 0.00 | 0.00 | 0.00 | 84 | 1042.5 |
| 20260506025435 | 9 | 292 | 0.0 | 0.0 | 0.00 | 0.00 | 0.00 | 84 | 1042.5 |
| 20260506024615 | 9 | 292 | 0.0 | 0.0 | 0.00 | 0.00 | 0.00 | 84 | 1042.5 |
| 20260506023755 | 9 | 292 | 0.0 | 0.0 | 0.00 | 0.00 | 0.00 | 83 | 1042.5 |
| 20260506022935 | 10 | 292 | 0.0 | 0.0 | 0.00 | 0.00 | 0.00 | 84 | 1042.5 |
| 20260506022115 | 10 | 292 | 0.0 | 0.0 | 0.00 | 0.00 | 0.00 | 84 | 1042.5 |
| 20260506021255 | 9 | 292 | 0.0 | 0.0 | 0.00 | 0.00 | 0.00 | 84 | 1042.5 |
| 20260506020435 | 9 | 292 | 0.0 | 0.0 | 0.00 | 0.00 | 0.00 | 83 | 1042.5 |
| 20260506015615 | 10 | 292 | 0.0 | 0.0 | 0.00 | 0.00 | 0.00 | 83 | 1042.5 |
| 20260506014755 | 10 | 292 | 0.0 | 0.0 | 0.00 | 0.00 | 0.00 | 82 | 1042.5 |
| 20260506013935 | 10 | 292 | 0.0 | 0.0 | 0.00 | 0.00 | 0.00 | 82 | 1042.5 |
| 20260506013115 | 10 | 292 | 0.0 | 0.0 | 0.00 | 0.00 | 0.00 | 82 | 1042.5 |
| 20260506012255 | 10 | 292 | 0.0 | 0.0 | 0.00 | 0.00 | 0.00 | 81 | 1042.5 |
| 20260506011435 | 10 | 296 | 0.0 | 0.0 | 0.00 | 0.00 | 0.00 | 80 | 1042.5 |
| 20260506010615 | 10 | 292 | 0.0 | 0.0 | 0.00 | 0.00 | 0.00 | 80 | 1042.5 |
| 20260506005755 | 10 | 292 | 0.0 | 0.0 | 0.00 | 0.00 | 0.00 | 80 | 1042.5 |
| 20260506004935 | 10 | 292 | 0.0 | 0.0 | 0.00 | 0.00 | 0.00 | 80 | 1042.5 |
| 20260506004115 | 10 | 292 | 0.0 | 0.0 | 0.00 | 0.00 | 0.00 | 80 | 1042.5 |
| 20260506003255 | 10 | 292 | 0.0 | 0.0 | 0.00 | 0.00 | 0.00 | 80 | 1042.5 |
| 20260506002435 | 10 | 292 | 0.0 | 0.0 | 0.00 | 0.00 | 0.00 | 80 | 1042.5 |
| 20260506001615 | 10 | 292 | 0.0 | 0.0 | 0.00 | 0.00 | 0.00 | 79 | 1042.5 |
| 20260506000755 | 10 | 292 | 0.0 | 0.0 | 0.00 | 0.00 | 0.00 | 79 | 1042.5 |
| 20260505235935 | 11 | 292 | 0.0 | 0.0 | 0.00 | 0.00 | 0.00 | 78 | 1042.5 |
| 20260505235115 | 11 | 292 | 0.0 | 0.0 | 0.00 | 0.00 | 0.00 | 77 | 1042.5 |
| 20260505234255 | 11 | 292 | 0.0 | 0.0 | 0.00 | 0.00 | 0.00 | 77 | 1042.5 |
| 20260505233435 | 11 | 289 | 0.0 | 0.0 | 0.00 | 0.00 | 0.00 | 76 | 1042.5 |
| 20260505232615 | 11 | 270 | 0.0 | 0.0 | 0.00 | 0.00 | 0.00 | 76 | 1042.5 |
| 20260505231755 | 11 | 270 | 0.0 | 0.0 | 0.00 | 0.00 | 0.00 | 77 | 1042.5 |
| 20260505230935 | 11 | 270 | 0.0 | 0.0 | 0.00 | 0.00 | 0.00 | 76 | 1042.5 |
| 20260505230115 | 12 | 270 | 0.0 | 0.0 | 0.00 | 0.00 | 0.00 | 75 | 1042.5 |
| 20260505225255 | 12 | 270 | 0.0 | 0.0 | 0.00 | 0.00 | 0.00 | 74 | 1042.5 |
| 20260505224435 | 12 | 270 | 0.0 | 0.0 | 0.00 | 0.00 | 0.00 | 72 | 1042.5 |
| 20260505223615 | 12 | 270 | 0.0 | 0.0 | 0.00 | 0.00 | 0.00 | 71 | 1042.5 |
| 20260505222755 | 12 | 270 | 0.0 | 0.0 | 0.00 | 0.00 | 0.00 | 71 | 1042.5 |
| 20260505221935 | 13 | 270 | 0.0 | 0.0 | 0.00 | 0.00 | 0.00 | 70 | 1042.5 |
| 20260505221115 | 13 | 270 | 0.0 | 0.0 | 0.00 | 0.00 | 0.00 | 70 | 1042.5 |
| 20260505220255 | 13 | 270 | 0.0 | 0.0 | 0.00 | 0.00 | 0.00 | 69 | 1042.5 |
| 20260505215435 | 13 | 270 | 0.0 | 0.0 | 0.00 | 0.00 | 0.00 | 67 | 1042.5 |
| 20260505214615 | 13 | 270 | 0.0 | 0.0 | 0.00 | 0.00 | 0.00 | 66 | 1042.5 |
| 20260505213755 | 14 | 270 | 0.0 | 0.0 | 0.00 | 0.00 | 0.00 | 65 | 1042.5 |
| 20260505212935 | 14 | 270 | 0.0 | 0.0 | 0.00 | 0.00 | 0.00 | 64 | 1042.5 |
| 20260505212115 | 14 | 270 | 0.0 | 0.0 | 0.00 | 0.00 | 0.00 | 65 | 1042.5 |
| 20260505211255 | 14 | 270 | 0.0 | 0.0 | 0.00 | 0.00 | 0.00 | 64 | 1042.5 |
| 20260505210435 | 14 | 292 | 0.0 | 0.0 | 0.00 | 0.00 | 0.00 | 64 | 1042.5 |
| 20260505205615 | 14 | 292 | 0.0 | 0.0 | 0.00 | 0.00 | 0.00 | 64 | 1042.5 |
| 20260505204755 | 15 | 292 | 0.0 | 0.0 | 0.00 | 0.00 | 0.00 | 64 | 1042.5 |
| 20260505203935 | 15 | 292 | 0.0 | 0.0 | 0.00 | 0.00 | 0.00 | 64 | 1042.5 |
| 20260505203115 | 15 | 292 | 0.0 | 0.0 | 0.00 | 0.00 | 0.00 | 63 | 1042.5 |
| 20260505202255 | 15 | 292 | 0.0 | 0.0 | 0.00 | 0.00 | 0.00 | 62 | 1042.5 |
| 20260505201435 | 16 | 202 | 0.0 | 0.0 | 0.00 | 0.00 | 0.00 | 59 | 1042.5 |
| 20260505200614 | 16 | 202 | 0.0 | 0.0 | 0.00 | 0.00 | 0.00 | 57 | 1042.5 |
| 20260505195755 | 16 | 202 | 0.0 | 0.0 | 0.00 | 0.00 | 0.00 | 54 | 1042.5 |
| 20260505194947 | 17 | 180 | 1.6 | 4.8 | 0.00 | 0.00 | 0.00 | 52 | 1042.5 |
| 20260505194114 | 16 | 182 | 1.6 | 3.2 | 0.00 | 0.00 | 0.00 | 52 | 1042.5 |
| 20260505193254 | 17 | 180 | 0.0 | 0.0 | 0.00 | 0.00 | 0.00 | 52 | 1042.5 |
| 20260505192434 | 17 | 180 | 1.6 | 0.0 | 0.00 | 0.00 | 0.00 | 51 | 1042.5 |
| 20260505191614 | 17 | 158 | 0.0 | 0.0 | 0.00 | 0.00 | 0.00 | 50 | 1042.5 |
| 20260505190754 | 17 | 182 | 1.6 | 0.0 | 0.00 | 0.00 | 0.00 | 51 | 1042.5 |
| 20260505185934 | 17 | 180 | 0.0 | 0.0 | 0.00 | 0.00 | 0.00 | 51 | 1042.5 |
| 20260505185114 | 17 | 202 | 0.0 | 0.0 | 0.00 | 0.00 | 0.00 | 49 | 1042.5 |
| 20260505184254 | 18 | 180 | 0.0 | 3.2 | 0.00 | 0.00 | 0.00 | 48 | 1042.5 |
| 20260505183434 | 18 | 143 | 0.0 | 1.6 | 0.00 | 0.00 | 0.00 | 48 | 1042.5 |
| 20260505182614 | 18 | 169 | 0.0 | 0.0 | 0.00 | 0.00 | 0.00 | 47 | 1042.5 |
| 20260505181754 | 18 | 180 | 0.0 | 0.0 | 0.00 | 0.00 | 0.00 | 47 | 1042.5 |
| 20260505180934 | 18 | 147 | 1.6 | 8.0 | 0.00 | 0.00 | 0.00 | 47 | 1042.5 |
| 20260505180114 | 18 | 158 | 3.2 | 4.8 | 0.00 | 0.00 | 0.00 | 46 | 1042.5 |
| 20260505175254 | 19 | 145 | 0.0 | 0.0 | 0.00 | 0.00 | 0.00 | 45 | 1042.5 |
| 20260505174434 | 19 | 128 | 1.6 | 11.3 | 0.00 | 0.00 | 0.00 | 45 | 1042.5 |
| 20260505173614 | 20 | 157 | 8.0 | 12.9 | 0.00 | 0.00 | 0.00 | 44 | 1042.5 |
| 20260505172754 | 20 | 127 | 9.7 | 9.7 | 0.00 | 0.00 | 0.00 | 44 | 1042.5 |
| 20260505171934 | 20 | 147 | 12.9 | 16.1 | 0.00 | 0.00 | 0.00 | 44 | 1042.5 |
| 20260505171114 | 20 | 142 | 4.8 | 16.1 | 0.00 | 0.00 | 0.00 | 44 | 1042.5 |
| 20260505170254 | 21 | 147 | 9.7 | 11.3 | 0.00 | 0.00 | 0.00 | 44 | 1042.5 |
| 20260505165434 | 21 | 158 | 8.0 | 12.9 | 0.00 | 0.00 | 0.00 | 45 | 1042.5 |
| 20260505164614 | 21 | 147 | 9.7 | 14.5 | 0.00 | 0.00 | 0.00 | 44 | 1042.5 |